Location: Ch�risy
(50.2331°N, 2.9131°E)
Time: 02:04:28
(UTC+00:00)

CZ-2D R/B - Pass Details

Date: 17 January 2021
Orbit: 520 x 538 km, 97.4° (Epoch: 28 February)

Event Time Altitude Azimuth Distance (km) Brightness Sun altitude
Rises 17:23:25 0° 148° (SSE) 2,678 6.7 -10.3°
Reaches altitude 10° 17:25:36 10° 141° (SE) 1,790 5.7 -10.6°
Maximum altitude 17:29:15 42° 70° (ENE) 768 3.6 -11.2°
Drops below altitude 10° 17:32:56 10° 359° (N) 1,795 5.8 -11.7°
Sets 17:35:07 0° 353° (N) 2,688 6.7 -12.1°
